[Date Prev][Date Next][Thread Prev][Thread Next] - [Date Index][Thread Index][Author Index]

2 Line ISS Keps 10-8



ISS
1 25544U 98067A   01281.37774773  .00059252  00000-0  67647-3 0  5685
2 25544  51.6400 239.1585 0007505 177.1906 320.9712 15.61589166164743


----
Via the sarex mailing list at AMSAT.ORG courtesy of AMSAT-NA.
To unsubscribe, send "unsubscribe sarex" to Majordomo@amsat.org



AMSAT Top AMSAT Home